Location: Focicchia
(42.2496°N, 9.2935°E)
Time: 06:17:53
(UTC+00:00)

X-37B - Pass Details

Date: 03 August 2021
Orbit: 381 x 393 km, 45.0° (Epoch: 29 August)

Event Time Altitude Azimuth Distance (km) Brightness Sun altitude
Exits shadow 01:40:00 12° 104° (ESE) 1,283 3.4 -23.1°
Drops below altitude 10° 01:40:24 10° 99° (E) 1,394 3.7 -23.0°
Sets 01:42:51 0° 79° (E) 2,251 5.1 -22.8°
